CAL173 VHHX-RJAA

Flight info

Callsign CAL173
Flight time 3h 31m
Altitude 35000
Route ENVAR M750 BILLY RUTAS
Aircraft B77W/H-SDE1E2E3FGHIJ2J3J4J5M1RWXY/LB1D1

Departure

Time 2026-05-04 01:15
Airport Hong Kong International Airport Kai Tak (VHHX)

Arrival

Time 2026-05-04 04:47
Airport Narita International Airport (RJAA)
Time Latitude Longitude Altitude Speed Heading
2026-05-04 00:44 22.32797 114.19490 44 ft 0 kts 314°
2026-05-04 01:00 22.32794 114.19493 42 ft 2 kts 314°
2026-05-04 01:00 22.32781 114.19508 42 ft 3 kts 314°
2026-05-04 01:01 22.32767 114.19524 40 ft 3 kts 314°
2026-05-04 01:01 22.32755 114.19539 39 ft 3 kts 324°
2026-05-04 01:01 22.32744 114.19546 41 ft 3 kts 356°
2026-05-04 01:01 22.32733 114.19546 42 ft 3 kts 31°
2026-05-04 01:02 22.32725 114.19539 41 ft 1 kts 44°
2026-05-04 01:02 22.32712 114.19526 41 ft 3 kts 44°
2026-05-04 01:02 22.32701 114.19515 41 ft 1 kts 44°
2026-05-04 01:02 22.32701 114.19514 41 ft 0 kts 44°
2026-05-04 01:07 22.32736 114.19551 42 ft 15 kts 44°
2026-05-04 01:07 22.32850 114.19670 43 ft 23 kts 44°
2026-05-04 01:07 22.32910 114.19733 43 ft 16 kts 47°
2026-05-04 01:08 22.32895 114.19836 43 ft 12 kts 133°
2026-05-04 01:08 22.32854 114.19883 43 ft 12 kts 133°
2026-05-04 01:08 22.32762 114.19958 43 ft 23 kts 135°
2026-05-04 01:08 22.32636 114.20047 43 ft 17 kts 185°
2026-05-04 01:09 22.32514 114.20006 43 ft 20 kts 198°
2026-05-04 01:09 22.32383 114.19959 43 ft 20 kts 199°
2026-05-04 01:09 22.32250 114.19917 42 ft 20 kts 188°
2026-05-04 01:09 22.32113 114.19922 42 ft 20 kts 167°
2026-05-04 01:10 22.31984 114.20019 42 ft 25 kts 134°
2026-05-04 01:10 22.31860 114.20156 42 ft 25 kts 134°
2026-05-04 01:10 22.31739 114.20293 42 ft 25 kts 134°
2026-05-04 01:10 22.31618 114.20429 42 ft 25 kts 134°
2026-05-04 01:11 22.31496 114.20564 42 ft 25 kts 134°
2026-05-04 01:11 22.31374 114.20699 42 ft 25 kts 134°
2026-05-04 01:11 22.31255 114.20833 42 ft 25 kts 134°
2026-05-04 01:11 22.31134 114.20969 42 ft 25 kts 134°
2026-05-04 01:12 22.31013 114.21105 42 ft 25 kts 134°
2026-05-04 01:12 22.30897 114.21245 42 ft 25 kts 130°
2026-05-04 01:12 22.30777 114.21383 43 ft 25 kts 134°
2026-05-04 01:12 22.30657 114.21520 43 ft 25 kts 133°
2026-05-04 01:13 22.30547 114.21641 43 ft 16 kts 135°
2026-05-04 01:13 22.30487 114.21687 42 ft 10 kts 173°
2026-05-04 01:13 22.30426 114.21651 42 ft 8 kts 234°
2026-05-04 01:13 22.30435 114.21597 42 ft 8 kts 308°
2026-05-04 01:14 22.30454 114.21576 42 ft 0 kts 314°
2026-05-04 01:14 22.30461 114.21568 42 ft 9 kts 314°
2026-05-04 01:14 22.30641 114.21366 42 ft 76 kts 314°
2026-05-04 01:15 22.31170 114.20775 42 ft 145 kts 314°
2026-05-04 01:15 22.32022 114.19822 215 ft 196 kts 316°
2026-05-04 01:15 22.32984 114.18693 799 ft 212 kts 306°
2026-05-04 01:15 22.33409 114.17168 1406 ft 221 kts 268°
2026-05-04 01:16 22.32882 114.15561 1951 ft 234 kts 243°
2026-05-04 01:16 22.32189 114.13952 2528 ft 240 kts 249°
2026-05-04 01:16 22.31563 114.12211 2878 ft 259 kts 250°
2026-05-04 01:16 22.30905 114.10395 3711 ft 259 kts 249°
2026-05-04 01:17 22.30241 114.08605 4763 ft 253 kts 249°
2026-05-04 01:17 22.29547 114.06854 5547 ft 258 kts 240°
2026-05-04 01:17 22.28258 114.05479 6178 ft 269 kts 209°
2026-05-04 01:17 22.26431 114.04945 6930 ft 277 kts 185°
2026-05-04 01:18 22.24523 114.04719 7501 ft 277 kts 204°
2026-05-04 01:18 22.22813 114.03786 8084 ft 277 kts 208°
2026-05-04 01:18 22.20897 114.03412 8699 ft 291 kts 176°
2026-05-04 01:18 22.18975 114.04150 9027 ft 300 kts 154°
2026-05-04 01:19 22.17153 114.05315 9002 ft 305 kts 152°
2026-05-04 01:19 22.15341 114.06499 8998 ft 304 kts 153°
2026-05-04 01:19 22.13532 114.07649 8989 ft 300 kts 154°
2026-05-04 01:19 22.11728 114.08760 8994 ft 298 kts 154°
2026-05-04 01:20 22.09915 114.09846 9006 ft 298 kts 155°
2026-05-04 01:20 22.08090 114.10920 9017 ft 299 kts 155°
2026-05-04 01:20 22.06259 114.11986 9008 ft 300 kts 155°
2026-05-04 01:20 22.04418 114.13050 9008 ft 300 kts 155°
2026-05-04 01:21 22.02573 114.14111 9001 ft 301 kts 155°
2026-05-04 01:21 22.00720 114.15175 8991 ft 302 kts 155°
2026-05-04 01:21 21.98864 114.16238 8997 ft 302 kts 155°
2026-05-04 01:21 21.97012 114.17298 9003 ft 301 kts 155°
2026-05-04 01:22 21.95170 114.18354 8998 ft 300 kts 155°
2026-05-04 01:22 21.93324 114.19410 8998 ft 300 kts 155°
2026-05-04 01:22 21.91505 114.20450 9002 ft 299 kts 155°
2026-05-04 01:22 21.89670 114.21498 9012 ft 298 kts 155°
2026-05-04 01:23 21.87839 114.22546 9001 ft 297 kts 154°
2026-05-04 01:23 21.86249 114.23942 8994 ft 298 kts 127°
2026-05-04 01:23 21.85410 114.25992 9306 ft 305 kts 102°
2026-05-04 01:23 21.85291 114.28297 9883 ft 313 kts 88°
2026-05-04 01:24 21.85403 114.30673 10434 ft 324 kts 86°
2026-05-04 01:24 21.85554 114.33186 10639 ft 349 kts 86°
2026-05-04 01:24 21.85719 114.35888 10827 ft 374 kts 86°
2026-05-04 01:24 21.85889 114.38771 10960 ft 398 kts 86°
2026-05-04 01:25 21.86054 114.41766 11014 ft 401 kts 87°
2026-05-04 01:25 21.86212 114.44779 11051 ft 405 kts 87°
2026-05-04 01:25 21.86366 114.47817 11050 ft 405 kts 87°
2026-05-04 01:25 21.86517 114.50849 11053 ft 404 kts 87°
2026-05-04 01:26 21.86665 114.53867 11054 ft 404 kts 87°
2026-05-04 01:26 21.86810 114.56845 11054 ft 404 kts 87°
2026-05-04 01:26 21.86956 114.59856 11052 ft 403 kts 87°
2026-05-04 01:26 21.87103 114.62870 11051 ft 403 kts 87°
2026-05-04 01:27 21.87249 114.65883 11051 ft 403 kts 87°
2026-05-04 01:27 21.87395 114.68900 11052 ft 403 kts 87°
2026-05-04 01:27 21.87540 114.71920 11047 ft 403 kts 87°
2026-05-04 01:27 21.87686 114.74926 11050 ft 403 kts 87°
2026-05-04 01:28 21.87832 114.77944 11050 ft 403 kts 87°
2026-05-04 01:28 21.87977 114.80956 11050 ft 403 kts 87°
2026-05-04 01:28 21.88121 114.83970 11054 ft 403 kts 87°
2026-05-04 01:28 21.88266 114.86987 11192 ft 406 kts 87°
2026-05-04 01:29 21.88417 114.90047 11921 ft 410 kts 87°
2026-05-04 01:29 21.88569 114.93124 12759 ft 412 kts 87°
2026-05-04 01:29 21.88722 114.96222 13536 ft 416 kts 87°
2026-05-04 01:29 21.88875 114.99355 14187 ft 422 kts 88°
2026-05-04 01:30 21.89030 115.02528 14802 ft 427 kts 88°
2026-05-04 01:30 21.89186 115.05748 15462 ft 432 kts 88°
2026-05-04 01:30 21.89341 115.08952 16109 ft 436 kts 88°
2026-05-04 01:30 21.89501 115.12278 16750 ft 441 kts 88°
2026-05-04 01:31 21.89658 115.15559 17360 ft 447 kts 88°
2026-05-04 01:31 21.89818 115.18923 17977 ft 451 kts 89°
2026-05-04 01:31 21.89979 115.22320 18562 ft 456 kts 89°
2026-05-04 01:31 21.90141 115.25747 19061 ft 461 kts 89°
2026-05-04 01:32 21.90305 115.29220 19572 ft 466 kts 89°
2026-05-04 01:32 21.90469 115.32725 20064 ft 471 kts 89°
2026-05-04 01:32 21.90634 115.36266 20569 ft 476 kts 89°
2026-05-04 01:32 21.90799 115.39807 21057 ft 480 kts 89°
2026-05-04 01:33 21.90966 115.43419 21551 ft 484 kts 89°
2026-05-04 01:33 21.91133 115.47055 22035 ft 489 kts 89°
2026-05-04 01:33 21.91302 115.50732 22511 ft 493 kts 89°
2026-05-04 01:33 21.91470 115.54437 22975 ft 497 kts 89°
2026-05-04 01:34 21.91640 115.58169 23429 ft 501 kts 89°
2026-05-04 01:34 21.91810 115.61935 23831 ft 505 kts 89°
2026-05-04 01:34 21.91980 115.65738 24220 ft 508 kts 89°
2026-05-04 01:34 21.92151 115.69550 24614 ft 511 kts 89°
2026-05-04 01:35 21.92321 115.73376 24993 ft 514 kts 89°
2026-05-04 01:35 21.92492 115.77235 25359 ft 517 kts 89°
2026-05-04 01:35 21.92662 115.81113 25716 ft 520 kts 89°
2026-05-04 01:35 21.92833 115.85010 26073 ft 523 kts 88°
2026-05-04 01:36 21.93003 115.88937 26425 ft 526 kts 88°
2026-05-04 01:36 21.93174 115.92882 26763 ft 529 kts 88°
2026-05-04 01:36 21.93343 115.96799 27101 ft 532 kts 88°
2026-05-04 01:36 21.93513 116.00784 27448 ft 534 kts 88°
2026-05-04 01:37 21.93684 116.04792 27774 ft 537 kts 88°
2026-05-04 01:37 21.93854 116.08821 28090 ft 540 kts 88°
2026-05-04 01:37 21.94024 116.12875 28390 ft 543 kts 88°
2026-05-04 01:37 21.94194 116.16944 28686 ft 545 kts 88°
2026-05-04 01:38 21.94365 116.21041 28975 ft 548 kts 88°
2026-05-04 01:38 21.94534 116.25151 29245 ft 550 kts 88°
2026-05-04 01:38 21.94704 116.29274 29508 ft 552 kts 88°
2026-05-04 01:38 21.94872 116.33407 29848 ft 553 kts 88°
2026-05-04 01:39 21.95040 116.37545 30238 ft 551 kts 88°
2026-05-04 01:39 21.95206 116.41668 30609 ft 550 kts 88°
2026-05-04 01:39 21.95371 116.45773 30996 ft 548 kts 88°
2026-05-04 01:39 21.95534 116.49870 31368 ft 547 kts 88°
2026-05-04 01:40 21.95695 116.53959 31737 ft 545 kts 88°
2026-05-04 01:40 21.95856 116.58035 32080 ft 545 kts 88°
2026-05-04 01:40 21.96013 116.62078 32042 ft 548 kts 88°
2026-05-04 01:41 21.96329 116.70235 32053 ft 544 kts 88°
2026-05-04 01:41 21.96639 116.78376 32066 ft 544 kts 88°
2026-05-04 01:42 21.96946 116.86521 32058 ft 544 kts 88°
2026-05-04 01:42 21.97250 116.94679 32051 ft 545 kts 88°
2026-05-04 01:43 21.97549 117.02840 32060 ft 545 kts 88°
2026-05-04 01:43 21.97844 117.11000 32055 ft 545 kts 88°
2026-05-04 01:44 21.98134 117.19120 32052 ft 545 kts 88°
2026-05-04 01:44 21.98422 117.27289 32051 ft 545 kts 88°
2026-05-04 01:45 21.98705 117.35455 32046 ft 544 kts 88°
2026-05-04 01:45 21.99186 117.47664 32032 ft 542 kts 82°
2026-05-04 01:46 22.00049 117.51605 32038 ft 540 kts 67°
2026-05-04 01:46 22.01799 117.55156 32061 ft 534 kts 54°
2026-05-04 01:46 22.05851 117.61897 32043 ft 538 kts 55°
2026-05-04 01:47 22.09849 117.68766 32042 ft 543 kts 56°
2026-05-04 01:47 22.13756 117.75682 32062 ft 545 kts 57°
2026-05-04 01:48 22.17690 117.82686 32043 ft 545 kts 56°
2026-05-04 01:48 22.21625 117.89677 32042 ft 544 kts 56°
2026-05-04 01:49 22.25552 117.96653 32041 ft 543 kts 57°
2026-05-04 01:49 22.29492 118.03601 32042 ft 542 kts 56°
2026-05-04 01:50 22.33541 118.10477 32042 ft 541 kts 55°
2026-05-04 01:50 22.37549 118.17293 32043 ft 541 kts 55°
2026-05-04 01:51 22.41555 118.24187 32045 ft 542 kts 56°
2026-05-04 01:51 22.45495 118.31153 32045 ft 543 kts 57°
2026-05-04 01:52 22.49420 118.38127 32040 ft 544 kts 57°
2026-05-04 01:52 22.53368 118.45117 32042 ft 544 kts 56°
2026-05-04 01:53 22.57315 118.52107 32047 ft 545 kts 56°
2026-05-04 01:53 22.61291 118.59089 32045 ft 545 kts 56°
2026-05-04 01:54 22.65285 118.66076 32047 ft 545 kts 56°
2026-05-04 01:54 22.69248 118.73026 32043 ft 546 kts 56°
2026-05-04 01:55 22.73229 118.80028 32040 ft 546 kts 56°
2026-05-04 01:55 22.77209 118.87040 32040 ft 546 kts 56°
2026-05-04 01:56 22.80517 118.92875 32041 ft 546 kts 56°
2026-05-04 01:56 22.84493 118.99896 32042 ft 546 kts 57°
2026-05-04 01:57 22.88480 119.06948 32039 ft 547 kts 56°
2026-05-04 01:57 22.92454 119.13984 32040 ft 547 kts 57°
2026-05-04 01:58 22.96404 119.20987 32038 ft 548 kts 57°
2026-05-04 01:58 23.00388 119.28062 32034 ft 548 kts 57°
2026-05-04 01:59 23.04363 119.35129 32034 ft 548 kts 57°
2026-05-04 01:59 23.08336 119.42204 32030 ft 549 kts 57°
2026-05-04 02:00 23.12283 119.49243 32027 ft 549 kts 57°
2026-05-04 02:00 23.16250 119.56327 32025 ft 549 kts 57°
2026-05-04 02:01 23.20217 119.63419 32025 ft 549 kts 57°
2026-05-04 02:01 23.24181 119.70526 32029 ft 549 kts 57°
2026-05-04 02:02 23.28141 119.77637 32029 ft 549 kts 57°
2026-05-04 02:02 23.32110 119.84774 32030 ft 550 kts 57°
2026-05-04 02:03 23.36287 119.91718 32025 ft 548 kts 50°
2026-05-04 02:03 23.41381 119.97828 31984 ft 541 kts 39°
2026-05-04 02:04 23.46883 120.03385 32023 ft 540 kts 39°
2026-05-04 02:04 23.52358 120.08944 32025 ft 541 kts 40°
2026-05-04 02:05 23.57839 120.14590 32021 ft 542 kts 40°
2026-05-04 02:05 23.63313 120.20261 32031 ft 543 kts 40°
2026-05-04 02:06 23.68801 120.25949 32026 ft 544 kts 40°
2026-05-04 02:06 23.74295 120.31645 32034 ft 545 kts 40°
2026-05-04 02:07 23.79788 120.37348 32029 ft 545 kts 40°
2026-05-04 02:07 23.85249 120.43024 32039 ft 546 kts 40°
2026-05-04 02:08 23.90749 120.48748 32036 ft 546 kts 40°
2026-05-04 02:08 23.96235 120.54505 32039 ft 546 kts 40°
2026-05-04 02:09 24.01697 120.60279 32066 ft 546 kts 40°
2026-05-04 02:09 24.07160 120.66057 32068 ft 546 kts 40°
2026-05-04 02:10 24.12594 120.71805 32050 ft 547 kts 40°
2026-05-04 02:10 24.18068 120.77600 32053 ft 547 kts 40°
2026-05-04 02:11 24.23541 120.83400 32039 ft 547 kts 40°
2026-05-04 02:11 24.29011 120.89208 32061 ft 547 kts 40°
2026-05-04 02:12 24.34478 120.95024 32072 ft 548 kts 40°
2026-05-04 02:12 24.39953 121.00852 32106 ft 549 kts 41°
2026-05-04 02:13 24.45026 121.07123 32159 ft 549 kts 49°
2026-05-04 02:13 24.49759 121.13744 32118 ft 551 kts 49°
2026-05-04 02:14 24.54491 121.20374 32143 ft 551 kts 49°
2026-05-04 02:14 24.59227 121.26926 32133 ft 551 kts 49°
2026-05-04 02:15 24.64006 121.33527 32127 ft 552 kts 49°
2026-05-04 02:15 24.68770 121.40120 32158 ft 551 kts 49°
2026-05-04 02:16 24.73539 121.46728 32143 ft 552 kts 49°
2026-05-04 02:16 24.78312 121.53351 32157 ft 553 kts 50°
2026-05-04 02:17 24.82730 121.59493 32149 ft 553 kts 50°
2026-05-04 02:17 24.85192 121.62919 32149 ft 552 kts 50°
2026-05-04 02:18 24.89947 121.69539 32170 ft 549 kts 50°
2026-05-04 02:18 24.94841 121.75931 32172 ft 549 kts 46°
2026-05-04 02:19 24.99901 121.82243 32155 ft 550 kts 46°
2026-05-04 02:19 25.04929 121.88615 32154 ft 551 kts 47°
2026-05-04 02:20 25.09938 121.95044 32141 ft 552 kts 47°
2026-05-04 02:20 25.14953 122.01480 32140 ft 553 kts 47°
2026-05-04 02:21 25.19950 122.07944 32142 ft 554 kts 47°
2026-05-04 02:21 25.24948 122.14433 32138 ft 555 kts 47°
2026-05-04 02:22 25.29953 122.20935 32140 ft 555 kts 47°
2026-05-04 02:22 25.34961 122.27444 32134 ft 556 kts 47°
2026-05-04 02:23 25.39970 122.33965 32133 ft 556 kts 47°
2026-05-04 02:23 25.44946 122.40454 32134 ft 556 kts 47°
2026-05-04 02:24 25.49955 122.46992 32135 ft 557 kts 47°
2026-05-04 02:24 25.54975 122.53529 32138 ft 557 kts 47°
2026-05-04 02:25 25.60010 122.60058 32139 ft 557 kts 47°
2026-05-04 02:25 25.65039 122.66592 32137 ft 557 kts 47°
2026-05-04 02:26 25.70063 122.73137 32139 ft 557 kts 47°
2026-05-04 02:26 25.75079 122.79684 32136 ft 557 kts 47°
2026-05-04 02:27 25.80097 122.86241 32140 ft 557 kts 47°
2026-05-04 02:27 25.85079 122.92761 32140 ft 557 kts 47°
2026-05-04 02:28 25.90092 122.99330 32139 ft 558 kts 47°
2026-05-04 02:28 25.95106 123.05913 32143 ft 558 kts 47°
2026-05-04 02:29 26.00127 123.12519 32143 ft 558 kts 47°
2026-05-04 02:29 26.05138 123.19125 32146 ft 559 kts 47°
2026-05-04 02:30 26.10145 123.25736 32142 ft 559 kts 47°
2026-05-04 02:30 26.15158 123.32362 32139 ft 559 kts 47°
2026-05-04 02:31 26.20141 123.38959 32139 ft 559 kts 47°
2026-05-04 02:31 26.25148 123.45597 32137 ft 559 kts 47°
2026-05-04 02:32 26.30161 123.52253 32140 ft 559 kts 47°
2026-05-04 02:32 26.35164 123.58905 32139 ft 560 kts 47°
2026-05-04 02:33 26.40131 123.65520 32146 ft 560 kts 47°
2026-05-04 02:33 26.45135 123.72193 32145 ft 560 kts 47°
2026-05-04 02:34 26.50132 123.78868 32140 ft 561 kts 47°
2026-05-04 02:34 26.55133 123.85559 32143 ft 561 kts 47°
2026-05-04 02:35 26.60128 123.92251 32143 ft 561 kts 47°
2026-05-04 02:35 26.65130 123.98962 32146 ft 561 kts 47°
2026-05-04 02:36 26.70134 124.05672 32149 ft 561 kts 47°
2026-05-04 02:36 26.75138 124.12377 32134 ft 562 kts 47°
2026-05-04 02:37 26.80106 124.19046 32141 ft 562 kts 47°
2026-05-04 02:37 26.85109 124.25776 32144 ft 561 kts 47°
2026-05-04 02:38 26.90102 124.32505 32149 ft 562 kts 47°
2026-05-04 02:38 26.95096 124.39244 32162 ft 561 kts 47°
2026-05-04 02:39 27.00102 124.46003 32147 ft 562 kts 47°
2026-05-04 02:39 27.05074 124.52701 32149 ft 562 kts 47°
2026-05-04 02:40 27.10081 124.59453 32147 ft 562 kts 47°
2026-05-04 02:40 27.15080 124.66212 32148 ft 563 kts 47°
2026-05-04 02:41 27.20077 124.72980 32152 ft 563 kts 47°
2026-05-04 02:41 27.25081 124.79769 32153 ft 563 kts 47°
2026-05-04 02:42 27.30078 124.86557 32153 ft 563 kts 48°
2026-05-04 02:42 27.35070 124.93351 32154 ft 563 kts 48°
2026-05-04 02:43 27.40055 125.00143 32161 ft 563 kts 48°
2026-05-04 02:43 27.42566 125.03549 32274 ft 566 kts 47°
2026-05-04 02:43 27.45089 125.06953 32582 ft 565 kts 47°
2026-05-04 02:44 27.47577 125.10303 32951 ft 564 kts 47°
2026-05-04 02:44 27.50092 125.13692 33310 ft 562 kts 47°
2026-05-04 02:44 27.52599 125.17073 33610 ft 562 kts 47°
2026-05-04 02:44 27.55107 125.20461 33901 ft 562 kts 47°
2026-05-04 02:45 27.57608 125.23845 34178 ft 562 kts 47°
2026-05-04 02:45 27.59274 125.26101 34334 ft 562 kts 47°
2026-05-04 02:45 27.61774 125.29491 34586 ft 561 kts 47°
2026-05-04 02:45 27.65075 125.33974 34919 ft 560 kts 46°
2026-05-04 02:46 27.66759 125.36262 35060 ft 561 kts 46°
2026-05-04 02:46 27.69258 125.39657 35104 ft 564 kts 46°
2026-05-04 02:46 27.74269 125.46474 35144 ft 563 kts 46°
2026-05-04 02:47 27.79213 125.53216 35147 ft 558 kts 46°
2026-05-04 02:47 27.84163 125.59973 35144 ft 557 kts 46°
2026-05-04 02:48 27.89099 125.66721 35159 ft 557 kts 46°
2026-05-04 02:48 27.94041 125.73485 35149 ft 557 kts 47°
2026-05-04 02:49 27.98978 125.80256 35151 ft 558 kts 47°
2026-05-04 02:49 28.03923 125.87047 35152 ft 560 kts 47°
2026-05-04 02:50 28.08846 125.93822 35152 ft 561 kts 47°
2026-05-04 02:50 28.13814 126.00668 35154 ft 562 kts 47°
2026-05-04 02:51 28.18781 126.07525 35155 ft 563 kts 47°
2026-05-04 02:51 28.23750 126.14394 35150 ft 563 kts 47°
2026-05-04 02:52 28.28713 126.21268 35152 ft 563 kts 47°
2026-05-04 02:52 28.33672 126.28147 35151 ft 562 kts 47°
2026-05-04 02:53 28.38590 126.34979 35148 ft 562 kts 47°
2026-05-04 02:53 28.43528 126.41851 35151 ft 561 kts 47°
2026-05-04 02:54 28.48460 126.48725 35155 ft 560 kts 47°
2026-05-04 02:54 28.53389 126.55607 35154 ft 560 kts 47°
2026-05-04 02:55 28.60778 126.65941 35163 ft 561 kts 47°
2026-05-04 02:56 28.65671 126.72801 35157 ft 562 kts 47°
2026-05-04 02:56 28.70597 126.79719 35152 ft 562 kts 47°
2026-05-04 02:57 28.75528 126.86654 35156 ft 563 kts 47°
2026-05-04 02:57 28.80462 126.93605 35156 ft 564 kts 48°
2026-05-04 02:58 28.85368 127.00528 35156 ft 564 kts 48°
2026-05-04 02:58 28.90299 127.07500 35155 ft 565 kts 48°
2026-05-04 02:59 28.95238 127.14492 35151 ft 565 kts 48°
2026-05-04 02:59 29.00172 127.21489 35150 ft 566 kts 48°
2026-05-04 03:00 29.05113 127.28509 35144 ft 566 kts 48°
2026-05-04 03:00 29.10038 127.35519 35138 ft 565 kts 48°
2026-05-04 03:01 29.14932 127.42495 35121 ft 565 kts 48°
2026-05-04 03:01 29.19846 127.49513 35144 ft 565 kts 48°
2026-05-04 03:02 29.24752 127.56530 35124 ft 564 kts 48°
2026-05-04 03:02 29.29658 127.63560 35130 ft 564 kts 48°
2026-05-04 03:03 29.34563 127.70600 35134 ft 565 kts 48°
2026-05-04 03:03 29.39462 127.77643 35129 ft 565 kts 48°
2026-05-04 03:04 29.44334 127.84662 35129 ft 565 kts 48°
2026-05-04 03:04 29.49240 127.91741 35127 ft 566 kts 48°
2026-05-04 03:05 29.54142 127.98825 35132 ft 567 kts 49°
2026-05-04 03:05 29.59053 128.05919 35145 ft 568 kts 49°
2026-05-04 03:06 29.63984 128.13053 35133 ft 570 kts 49°
2026-05-04 03:06 29.68911 128.20198 35132 ft 571 kts 49°
2026-05-04 03:07 29.73813 128.27322 35124 ft 572 kts 49°
2026-05-04 03:07 29.78757 128.34519 35116 ft 573 kts 49°
2026-05-04 03:08 29.83704 128.41733 35119 ft 574 kts 49°
2026-05-04 03:08 29.88655 128.48965 35123 ft 575 kts 49°
2026-05-04 03:09 29.93614 128.56222 35116 ft 576 kts 49°
2026-05-04 03:09 29.98570 128.63488 35116 ft 576 kts 49°
2026-05-04 03:10 30.03526 128.70766 35110 ft 577 kts 49°
2026-05-04 03:10 30.08446 128.78006 35106 ft 577 kts 49°
2026-05-04 03:11 30.13397 128.85306 35097 ft 576 kts 49°
2026-05-04 03:11 30.18339 128.92604 35105 ft 576 kts 49°
2026-05-04 03:12 30.23278 128.99910 35097 ft 576 kts 49°
2026-05-04 03:12 30.28187 129.07184 35090 ft 576 kts 49°
2026-05-04 03:13 30.33114 129.14494 35097 ft 576 kts 49°
2026-05-04 03:13 30.38034 129.21810 35094 ft 576 kts 49°
2026-05-04 03:14 30.42957 129.29146 35089 ft 576 kts 49°
2026-05-04 03:14 30.47869 129.36480 35089 ft 576 kts 49°
2026-05-04 03:15 30.52758 129.43790 35085 ft 576 kts 49°
2026-05-04 03:15 30.57669 129.51148 35089 ft 577 kts 49°
2026-05-04 03:16 30.62582 129.58524 35086 ft 577 kts 49°
2026-05-04 03:16 30.67495 129.65912 35083 ft 578 kts 49°
2026-05-04 03:17 30.72407 129.73313 35078 ft 578 kts 49°
2026-05-04 03:17 30.77320 129.80731 35072 ft 579 kts 49°
2026-05-04 03:18 30.82230 129.88159 35078 ft 579 kts 49°
2026-05-04 03:18 30.86888 129.95820 35077 ft 581 kts 56°
2026-05-04 03:19 30.91123 130.03843 35071 ft 582 kts 57°
2026-05-04 03:19 30.95327 130.11919 35070 ft 583 kts 57°
2026-05-04 03:20 30.99572 130.19985 35065 ft 583 kts 57°
2026-05-04 03:20 31.03808 130.27986 35063 ft 584 kts 57°
2026-05-04 03:21 31.08072 130.36049 35062 ft 584 kts 57°
2026-05-04 03:21 31.12328 130.44126 35058 ft 584 kts 57°
2026-05-04 03:22 31.16576 130.52210 35055 ft 584 kts 57°
2026-05-04 03:22 31.20821 130.60305 35055 ft 584 kts 57°
2026-05-04 03:23 31.25056 130.68398 35049 ft 584 kts 57°
2026-05-04 03:23 31.29289 130.76504 35040 ft 583 kts 57°
2026-05-04 03:24 31.33512 130.84607 35035 ft 583 kts 57°
2026-05-04 03:24 31.37699 130.92657 35042 ft 582 kts 57°
2026-05-04 03:25 31.41910 131.00771 35024 ft 582 kts 57°
2026-05-04 03:25 31.46123 131.08906 35026 ft 582 kts 57°
2026-05-04 03:26 31.50291 131.16971 35030 ft 583 kts 57°
2026-05-04 03:26 31.54490 131.25115 35029 ft 583 kts 58°
2026-05-04 03:27 31.58685 131.33270 35004 ft 584 kts 58°
2026-05-04 03:27 31.62888 131.41455 34991 ft 585 kts 58°
2026-05-04 03:28 31.67079 131.49644 34972 ft 586 kts 58°
2026-05-04 03:28 31.71248 131.57812 34966 ft 586 kts 58°
2026-05-04 03:29 31.75440 131.66042 34974 ft 586 kts 58°
2026-05-04 03:29 31.79626 131.74280 34981 ft 587 kts 58°
2026-05-04 03:30 31.83807 131.82524 34986 ft 587 kts 58°
2026-05-04 03:30 31.87984 131.90777 34990 ft 587 kts 58°
2026-05-04 03:31 31.92157 131.99042 34996 ft 588 kts 58°
2026-05-04 03:31 31.96305 132.07276 35007 ft 588 kts 58°
2026-05-04 03:32 32.00482 132.15584 34997 ft 590 kts 58°
2026-05-04 03:32 32.04665 132.23924 34993 ft 591 kts 58°
2026-05-04 03:33 32.08844 132.32276 34980 ft 591 kts 59°
2026-05-04 03:33 32.12987 132.40654 34966 ft 591 kts 62°
2026-05-04 03:34 32.16734 132.49294 34985 ft 591 kts 64°
2026-05-04 03:34 32.19743 132.56536 34964 ft 591 kts 64°
2026-05-04 03:35 32.23370 132.65241 34978 ft 590 kts 64°
2026-05-04 03:35 32.27025 132.73922 34971 ft 590 kts 64°
2026-05-04 03:36 32.30689 132.82605 34959 ft 590 kts 64°
2026-05-04 03:36 32.34346 132.91305 34957 ft 590 kts 64°
2026-05-04 03:37 32.37966 132.99949 34957 ft 589 kts 64°
2026-05-04 03:37 32.41601 133.08649 34953 ft 589 kts 64°
2026-05-04 03:38 32.45223 133.17340 34953 ft 588 kts 64°
2026-05-04 03:38 32.48814 133.25977 34945 ft 588 kts 64°
2026-05-04 03:39 32.52421 133.34675 34946 ft 587 kts 64°
2026-05-04 03:39 32.56018 133.43370 34951 ft 587 kts 64°
2026-05-04 03:40 32.59630 133.52056 34943 ft 588 kts 64°
2026-05-04 03:40 32.63259 133.60751 34942 ft 588 kts 64°
2026-05-04 03:41 32.66846 133.69470 34932 ft 588 kts 65°
2026-05-04 03:41 32.70395 133.78199 34935 ft 587 kts 65°
2026-05-04 03:42 32.73949 133.86945 34933 ft 587 kts 65°
2026-05-04 03:42 32.77476 133.95629 34926 ft 587 kts 65°
2026-05-04 03:43 32.81016 134.04380 34926 ft 587 kts 66°
2026-05-04 03:43 32.83896 134.13435 34924 ft 584 kts 76°
2026-05-04 03:44 32.86137 134.22711 34919 ft 583 kts 77°
2026-05-04 03:44 32.88365 134.31987 34913 ft 583 kts 77°
2026-05-04 03:45 32.90653 134.41259 34906 ft 583 kts 76°
2026-05-04 03:45 32.92949 134.50495 34906 ft 582 kts 76°
2026-05-04 03:46 32.95218 134.59680 34902 ft 581 kts 76°
2026-05-04 03:46 32.97487 134.68922 34898 ft 581 kts 77°
2026-05-04 03:47 32.99748 134.78160 34897 ft 580 kts 77°
2026-05-04 03:47 33.01996 134.87394 34889 ft 580 kts 77°
2026-05-04 03:48 33.04232 134.96633 34888 ft 579 kts 77°
2026-05-04 03:48 33.06462 135.05883 34888 ft 579 kts 77°
2026-05-04 03:49 33.08668 135.15057 34883 ft 579 kts 77°
2026-05-04 03:49 33.10861 135.24297 34876 ft 579 kts 78°
2026-05-04 03:50 33.12926 135.33574 34874 ft 578 kts 79°
2026-05-04 03:50 33.14959 135.42862 34867 ft 578 kts 79°
2026-05-04 03:51 33.17005 135.52137 34867 ft 578 kts 79°
2026-05-04 03:51 33.19055 135.61413 34862 ft 578 kts 79°
2026-05-04 03:52 33.21098 135.70700 34853 ft 578 kts 79°
2026-05-04 03:52 33.23133 135.79994 34846 ft 578 kts 79°
2026-05-04 03:53 33.25148 135.89234 34840 ft 577 kts 79°
2026-05-04 03:53 33.27156 135.98529 34839 ft 577 kts 79°
2026-05-04 03:54 33.29149 136.07826 34840 ft 577 kts 79°
2026-05-04 03:54 33.31136 136.17132 34838 ft 577 kts 79°
2026-05-04 03:55 33.33118 136.26440 34839 ft 578 kts 79°
2026-05-04 03:55 33.35081 136.35692 34838 ft 578 kts 79°
2026-05-04 03:56 33.37050 136.45010 34836 ft 578 kts 79°
2026-05-04 03:56 33.39013 136.54338 34831 ft 577 kts 79°
2026-05-04 03:57 33.40968 136.63666 34822 ft 577 kts 79°
2026-05-04 03:57 33.42912 136.72979 34825 ft 577 kts 79°
2026-05-04 03:58 33.45815 136.86956 34817 ft 576 kts 79°
2026-05-04 03:58 33.47741 136.96273 34815 ft 575 kts 79°
2026-05-04 03:59 33.49656 137.05578 34813 ft 575 kts 79°
2026-05-04 03:59 33.51553 137.14832 34813 ft 575 kts 79°
2026-05-04 04:00 33.53455 137.24150 34810 ft 575 kts 79°
2026-05-04 04:00 33.55349 137.33467 34806 ft 575 kts 79°
2026-05-04 04:01 33.57237 137.42791 34802 ft 575 kts 79°
2026-05-04 04:01 33.59116 137.52113 34805 ft 575 kts 80°
2026-05-04 04:02 33.61108 137.61389 34793 ft 576 kts 75°
2026-05-04 04:02 33.64110 137.70308 34803 ft 577 kts 66°
2026-05-04 04:03 33.67531 137.79020 34794 ft 576 kts 66°
2026-05-04 04:03 33.70929 137.87728 34796 ft 575 kts 66°
2026-05-04 04:04 33.74240 137.96395 34784 ft 574 kts 67°
2026-05-04 04:04 33.77538 138.05125 34793 ft 574 kts 67°
2026-05-04 04:05 33.80848 138.13895 34793 ft 576 kts 67°
2026-05-04 04:05 33.84158 138.22677 34783 ft 576 kts 67°
2026-05-04 04:06 33.87459 138.31451 34776 ft 576 kts 67°
2026-05-04 04:06 33.90758 138.40246 34777 ft 575 kts 67°
2026-05-04 04:07 33.94022 138.48971 34774 ft 575 kts 68°
2026-05-04 04:07 33.97297 138.57748 34772 ft 574 kts 68°
2026-05-04 04:08 34.00563 138.66526 34769 ft 574 kts 68°
2026-05-04 04:08 34.03822 138.75309 34761 ft 573 kts 68°
2026-05-04 04:09 34.07073 138.84092 34758 ft 573 kts 68°
2026-05-04 04:09 34.10292 138.92814 34757 ft 572 kts 68°
2026-05-04 04:10 34.13529 139.01607 34755 ft 572 kts 68°
2026-05-04 04:10 34.16751 139.10382 34751 ft 572 kts 68°
2026-05-04 04:11 34.19957 139.19136 34317 ft 565 kts 68°
2026-05-04 04:11 34.21538 139.23461 33832 ft 562 kts 68°
2026-05-04 04:11 34.23112 139.27775 33273 ft 559 kts 68°
2026-05-04 04:12 34.24677 139.32068 32722 ft 556 kts 68°
2026-05-04 04:12 34.26226 139.36325 32235 ft 552 kts 68°
2026-05-04 04:12 34.27770 139.40573 31810 ft 547 kts 68°
2026-05-04 04:12 34.29296 139.44777 31366 ft 543 kts 68°
2026-05-04 04:13 34.30787 139.48888 30918 ft 539 kts 68°
2026-05-04 04:13 34.32286 139.53030 30448 ft 536 kts 68°
2026-05-04 04:13 34.33780 139.57163 30003 ft 533 kts 68°
2026-05-04 04:13 34.35260 139.61261 29524 ft 530 kts 68°
2026-05-04 04:14 34.36729 139.65335 29055 ft 525 kts 68°
2026-05-04 04:14 34.38183 139.69374 28576 ft 521 kts 68°
2026-05-04 04:14 34.39624 139.73381 28111 ft 518 kts 68°
2026-05-04 04:14 34.41056 139.77367 27642 ft 514 kts 68°
2026-05-04 04:15 34.42475 139.81321 27184 ft 511 kts 68°
2026-05-04 04:15 34.43888 139.85263 26730 ft 507 kts 68°
2026-05-04 04:15 34.45286 139.89169 26306 ft 504 kts 68°
2026-05-04 04:15 34.46659 139.93009 25889 ft 500 kts 68°
2026-05-04 04:16 34.48038 139.96869 25461 ft 497 kts 68°
2026-05-04 04:16 34.49409 140.00713 25039 ft 495 kts 68°
2026-05-04 04:16 34.50767 140.04525 24624 ft 492 kts 68°
2026-05-04 04:16 34.52121 140.08326 24209 ft 489 kts 68°
2026-05-04 04:17 34.53460 140.12093 23819 ft 486 kts 68°
2026-05-04 04:17 34.54794 140.15851 23434 ft 483 kts 68°
2026-05-04 04:17 34.56116 140.19580 23007 ft 479 kts 68°
2026-05-04 04:17 34.57426 140.23279 22550 ft 476 kts 68°
2026-05-04 04:18 34.58729 140.26962 22129 ft 473 kts 68°
2026-05-04 04:18 34.60022 140.30622 21710 ft 470 kts 68°
2026-05-04 04:18 34.61302 140.34250 21294 ft 466 kts 68°
2026-05-04 04:18 34.62573 140.37856 20887 ft 463 kts 68°
2026-05-04 04:19 34.63836 140.41444 20463 ft 460 kts 68°
2026-05-04 04:19 34.65091 140.45012 20073 ft 458 kts 68°
2026-05-04 04:19 34.66320 140.48511 19694 ft 454 kts 68°
2026-05-04 04:19 34.67555 140.52030 19308 ft 452 kts 68°
2026-05-04 04:20 34.68783 140.55535 18919 ft 449 kts 69°
2026-05-04 04:20 34.70003 140.59017 18520 ft 447 kts 68°
2026-05-04 04:20 34.71283 140.62431 18121 ft 441 kts 59°
2026-05-04 04:20 34.73225 140.65301 17517 ft 438 kts 36°
2026-05-04 04:21 34.75758 140.67269 17057 ft 427 kts 19°
2026-05-04 04:21 34.78512 140.68411 16660 ft 409 kts
2026-05-04 04:21 34.81284 140.68818 16194 ft 399 kts 356°
2026-05-04 04:21 34.84052 140.69112 15720 ft 399 kts 356°
2026-05-04 04:22 34.86811 140.69398 15316 ft 397 kts 356°
2026-05-04 04:22 34.89550 140.69699 14947 ft 394 kts 356°
2026-05-04 04:22 34.92269 140.70016 14583 ft 391 kts 356°
2026-05-04 04:22 34.94971 140.70343 14204 ft 389 kts 356°
2026-05-04 04:23 34.97666 140.70676 13821 ft 387 kts 356°
2026-05-04 04:23 35.00333 140.71009 13558 ft 382 kts 356°
2026-05-04 04:23 35.02935 140.71336 13359 ft 377 kts 356°
2026-05-04 04:23 35.05545 140.71661 13162 ft 377 kts 356°
2026-05-04 04:24 35.07313 140.71881 13036 ft 379 kts 357°
2026-05-04 04:24 35.09921 140.72347 12850 ft 385 kts
2026-05-04 04:24 35.12562 140.72935 12649 ft 385 kts
2026-05-04 04:24 35.15186 140.73556 12458 ft 383 kts
2026-05-04 04:25 35.17799 140.74178 12268 ft 381 kts
2026-05-04 04:25 35.20401 140.74791 12078 ft 379 kts
2026-05-04 04:25 35.22980 140.75392 11918 ft 375 kts
2026-05-04 04:25 35.25538 140.75982 11602 ft 374 kts
2026-05-04 04:26 35.28094 140.76567 11271 ft 372 kts
2026-05-04 04:26 35.30639 140.77148 10967 ft 370 kts
2026-05-04 04:26 35.33158 140.77725 10690 ft 367 kts
2026-05-04 04:26 35.35663 140.78298 10414 ft 365 kts
2026-05-04 04:27 35.38119 140.78860 10195 ft 360 kts
2026-05-04 04:27 35.40543 140.79419 10130 ft 348 kts
2026-05-04 04:27 35.42876 140.79958 10091 ft 335 kts
2026-05-04 04:27 35.45122 140.80475 10080 ft 321 kts
2026-05-04 04:28 35.47267 140.80968 10075 ft 306 kts
2026-05-04 04:28 35.49316 140.81440 10068 ft 291 kts
2026-05-04 04:28 35.51261 140.81888 10064 ft 280 kts
2026-05-04 04:28 35.53168 140.82323 10086 ft 278 kts
2026-05-04 04:29 35.55021 140.82407 10077 ft 256 kts 334°
2026-05-04 04:29 35.56625 140.81602 9883 ft 245 kts 315°
2026-05-04 04:29 35.58060 140.80467 9717 ft 246 kts 315°
2026-05-04 04:29 35.59495 140.79326 9497 ft 244 kts 315°
2026-05-04 04:30 35.60909 140.78202 9267 ft 240 kts 315°
2026-05-04 04:30 35.62299 140.77097 9053 ft 235 kts 315°
2026-05-04 04:30 35.63661 140.76015 8846 ft 231 kts 315°
2026-05-04 04:30 35.65016 140.74936 8673 ft 233 kts 315°
2026-05-04 04:31 35.66386 140.73841 8480 ft 237 kts 316°
2026-05-04 04:31 35.67776 140.72733 8295 ft 239 kts 316°
2026-05-04 04:31 35.69153 140.71639 8088 ft 238 kts 316°
2026-05-04 04:31 35.70547 140.70533 7896 ft 238 kts 316°
2026-05-04 04:32 35.71940 140.69426 7695 ft 239 kts 317°
2026-05-04 04:32 35.73335 140.68317 7491 ft 239 kts 317°
2026-05-04 04:32 35.74731 140.67209 7305 ft 239 kts 317°
2026-05-04 04:32 35.76123 140.66103 7107 ft 238 kts 317°
2026-05-04 04:33 35.77513 140.64998 6912 ft 237 kts 317°
2026-05-04 04:33 35.78897 140.63899 6721 ft 237 kts 318°
2026-05-04 04:33 35.80281 140.62798 6523 ft 236 kts 317°
2026-05-04 04:33 35.81658 140.61701 6323 ft 235 kts 318°
2026-05-04 04:34 35.83028 140.60610 6131 ft 233 kts 319°
2026-05-04 04:34 35.84304 140.59449 5942 ft 221 kts 305°
2026-05-04 04:34 35.85291 140.58033 5799 ft 219 kts 300°
2026-05-04 04:34 35.86242 140.56534 5651 ft 224 kts 300°
2026-05-04 04:35 35.87210 140.55008 5475 ft 225 kts 300°
2026-05-04 04:35 35.88166 140.53520 5305 ft 223 kts 301°
2026-05-04 04:35 35.89127 140.52037 5112 ft 220 kts 301°
2026-05-04 04:35 35.90078 140.50575 4984 ft 217 kts 301°
2026-05-04 04:36 35.91023 140.49126 4828 ft 217 kts 301°
2026-05-04 04:36 35.91980 140.47657 4690 ft 222 kts 301°
2026-05-04 04:36 35.92954 140.46161 4522 ft 224 kts 301°
2026-05-04 04:36 35.93938 140.44669 4361 ft 224 kts 302°
2026-05-04 04:37 35.96863 140.40136 3929 ft 222 kts 300°
2026-05-04 04:37 35.97776 140.38623 3845 ft 218 kts 300°
2026-05-04 04:38 35.98666 140.37143 3755 ft 217 kts 300°
2026-05-04 04:38 35.99557 140.35659 3655 ft 214 kts 300°
2026-05-04 04:38 36.00440 140.34153 3595 ft 216 kts 293°
2026-05-04 04:38 36.00800 140.32433 3489 ft 204 kts 260°
2026-05-04 04:39 36.00431 140.30785 3409 ft 199 kts 240°
2026-05-04 04:39 35.99743 140.29284 3340 ft 204 kts 237°
2026-05-04 04:39 35.99008 140.27779 3270 ft 205 kts 237°
2026-05-04 04:39 35.98278 140.26280 3174 ft 201 kts 237°
2026-05-04 04:40 35.97462 140.24930 3049 ft 195 kts 216°
2026-05-04 04:40 35.96233 140.24283 2999 ft 194 kts 193°
2026-05-04 04:40 35.94880 140.24267 2978 ft 198 kts 168°
2026-05-04 04:40 35.93672 140.25058 2988 ft 195 kts 156°
2026-05-04 04:41 35.92533 140.25897 2888 ft 185 kts 158°
2026-05-04 04:41 35.91450 140.26668 2905 ft 176 kts 159°
2026-05-04 04:41 35.90406 140.27408 2804 ft 174 kts 158°
2026-05-04 04:41 35.89346 140.28173 2547 ft 174 kts 158°
2026-05-04 04:42 35.88329 140.28915 2366 ft 173 kts 157°
2026-05-04 04:42 35.87283 140.29673 2084 ft 174 kts 157°
2026-05-04 04:42 35.86275 140.30403 1846 ft 160 kts 158°
2026-05-04 04:42 35.85375 140.31064 1725 ft 148 kts 157°
2026-05-04 04:43 35.84432 140.31742 1464 ft 161 kts 158°
2026-05-04 04:43 35.83492 140.32427 1243 ft 151 kts 157°
2026-05-04 04:43 35.82650 140.33043 1041 ft 135 kts 158°
2026-05-04 04:43 35.81768 140.33671 913 ft 149 kts 158°
2026-05-04 04:44 35.80894 140.34328 769 ft 142 kts 157°
2026-05-04 04:44 35.80089 140.34949 675 ft 133 kts 160°
2026-05-04 04:44 35.79228 140.35545 585 ft 149 kts 160°
2026-05-04 04:44 35.78358 140.36161 414 ft 141 kts 157°
2026-05-04 04:45 35.77532 140.36772 220 ft 136 kts 159°
2026-05-04 04:45 35.76753 140.37331 150 ft 117 kts 152°
2026-05-04 04:45 35.76165 140.37750 149 ft 76 kts 150°
2026-05-04 04:47 35.75158 140.38783 149 ft 13 kts 86°
2026-05-04 04:47 35.75242 140.38866 149 ft 26 kts 25°
2026-05-04 04:47 35.75424 140.38966 149 ft 29 kts 24°
2026-05-04 04:47 35.75609 140.39068 149 ft 29 kts 25°
2026-05-04 04:48 35.75748 140.39224 148 ft 27 kts 58°
2026-05-04 04:49 35.76419 140.39635 149 ft 27 kts 24°
2026-05-04 04:49 35.76590 140.39733 149 ft 27 kts 24°
2026-05-04 04:49 35.76743 140.39866 149 ft 27 kts 28°
2026-05-04 04:49 35.76904 140.39891 149 ft 14 kts 342°
2026-05-04 04:50 35.76974 140.39767 149 ft 28 kts 295°
2026-05-04 04:50 35.76997 140.39574 149 ft 19 kts 242°
2026-05-04 04:50 35.76942 140.39432 149 ft 14 kts 271°
2026-05-04 04:50 35.77003 140.39354 149 ft 14 kts 328°
2026-05-04 04:51 35.77110 140.39274 149 ft 29 kts 329°
2026-05-04 04:51 35.77214 140.39200 149 ft 5 kts 330°
2026-05-04 04:51 35.77243 140.39180 149 ft 5 kts 330°
2026-05-04 04:51 35.77272 140.39144 149 ft 7 kts 290°
2026-05-04 04:52 35.77258 140.39084 149 ft 7 kts 241°
2026-05-04 04:52 35.77249 140.39064 149 ft 0 kts 240°
2026-05-04 04:52 35.77247 140.39060 148 ft 0 kts 240°
2026-05-04 04:54 35.81422 140.33927 786 ft 149 kts 156°
2026-05-04 04:54 35.80575 140.34576 706 ft 137 kts 157°
2026-05-04 04:54 35.79774 140.35176 621 ft 140 kts 161°
2026-05-04 04:54 35.78879 140.35786 505 ft 145 kts 159°